Temp
70 69 68 70 68 68 69 71 73 73 73 73 73 73 73 72 72 72 71 72 71 71
70 70 69 70 70 70 70 71 71 73 73 73 74 74 72 71 72 72 72 72 71 71
72 71 71 70 70 70 70 71 71 72 73 73 73 73 72 71 72 72 72 71 71 71
71 71 70 71 71 71 71 71 71 73 71 72 73 72 72 72 72 71 72 72 71 72
70 70 71 71 71 71 71 71 71 71 70 70 70 71 71 72 74 72 71 72 71 72
67 69 70 71 73 70 71 71 70 69 69 68 69 69 71 71 71 72 72 72 71 72
66 67 69 70 71 71 71 71 70 70 71 70 70 71 72 72 71 72 72 73 72 73
66 67 68 68 71 72 71 73 73 73 71 71 71 74 71 72 72 71 72 73 73 73
68 66 66 66 68 70 71 72 71 70 73 72 75 72 70 73 73 72 71 71 71 73
67 66 65 67 67 67 68 70 71 72 73 73 74 69 69 71 74 72 72 71 71 72
66 66 66 67 66 66 66 67 69 70 70 71 74 68 67 70 72 71 72 72 72 71
67 66 67 68 68 67 66 66 68 70 70 71 73 65 65 66 70 71 71 72 72 72
68 67 67 67 68 69 68 68 69 69 70 68 70 63 61 63 69 69 70 70 70 66
65 65 65 64 64 64 66 68 68 68 68 68 66 66 61 60 66 69 69 69 69 70
MSLP
1015.00 1015.37 1015.62 1015.99 1016.38 1016.36 1016.51 1016.38 1016.39 1016.39 1016.56 1016.75 1016.91 1017.07 1017.00 1017.31 1017.37 1017.57 1017.83 1017.80 1017.69 1017.64
1014.71 1015.06 1015.37 1015.62 1015.87 1016.01 1016.03 1016.27 1016.56 1016.32 1016.46 1016.34 1016.45 1016.50 1016.99 1017.21 1017.36 1017.42 1017.45 1017.49 1017.55 1017.56
1014.07 1014.31 1014.59 1014.97 1015.36 1015.57 1015.78 1015.90 1015.95 1016.14 1016.26 1016.23 1016.40 1016.53 1016.80 1016.88 1017.02 1017.25 1017.24 1017.30 1017.47 1017.40
1013.52 1013.82 1014.12 1014.43 1014.48 1014.79 1015.01 1015.29 1015.59 1015.62 1015.88 1016.09 1016.16 1016.22 1016.55 1016.69 1016.80 1017.01 1017.04 1017.09 1017.31 1017.21
1012.79 1013.25 1013.50 1013.76 1014.22 1014.36 1014.47 1014.71 1014.90 1015.08 1015.46 1015.79 1016.04 1016.15 1016.29 1016.47 1016.44 1016.64 1016.81 1016.75 1016.92 1016.75
1012.61 1012.76 1012.98 1013.19 1013.56 1014.03 1014.32 1014.28 1014.47 1014.82 1015.04 1015.37 1015.68 1016.13 1016.10 1016.12 1016.19 1016.12 1016.26 1016.26 1016.39 1016.32
1012.66 1012.52 1012.57 1012.82 1013.01 1013.43 1013.76 1014.05 1014.14 1014.21 1014.59 1014.84 1015.08 1015.33 1015.55 1015.71 1015.78 1015.87 1015.94 1015.89 1015.98 1015.96
1012.39 1012.61 1012.51 1012.54 1012.65 1012.54 1012.94 1013.45 1013.68 1013.94 1014.21 1014.52 1014.75 1014.82 1014.99 1015.09 1015.28 1015.39 1015.53 1015.54 1015.54 1015.57
1012.20 1012.23 1012.39 1012.45 1012.79 1012.54 1012.42 1012.80 1013.22 1013.43 1013.57 1013.80 1013.99 1014.04 1014.20 1014.44 1014.65 1014.78 1015.12 1015.31 1015.18 1015.20
1011.76 1011.97 1012.10 1012.29 1012.29 1012.32 1012.56 1012.59 1012.84 1012.96 1013.17 1013.19 1013.26 1013.39 1013.54 1013.74 1014.15 1014.25 1014.37 1014.55 1014.72 1014.86
1011.45 1011.58 1011.78 1011.85 1011.80 1012.16 1012.31 1012.26 1012.50 1012.65 1012.76 1012.89 1012.65 1012.73 1012.87 1013.01 1013.41 1013.74 1013.78 1013.87 1014.04 1014.25
1011.36 1011.44 1011.53 1011.58 1011.50 1011.53 1011.82 1011.87 1011.99 1012.00 1012.08 1012.27 1012.11 1012.05 1012.26 1012.47 1012.97 1013.14 1013.10 1013.04 1013.12 1013.33
1011.00 1011.17 1011.23 1011.12 1010.92 1010.95 1010.91 1010.94 1011.26 1011.56 1011.65 1011.84 1011.98 1011.91 1012.02 1012.28 1012.62 1012.68 1012.60 1012.46 1012.46 1012.52
1011.42 1011.36 1011.14 1011.17 1011.09 1011.02 1011.08 1010.98 1011.04 1011.22 1011.43 1011.81 1011.97 1011.84 1011.83 1012.03 1012.24 1011.93 1011.93 1011.93 1011.75 1011.60
Wind_Speed
7 5 5 5 4 4 3 4 3 5 5 5 5 4 3 2 3 3 3 4 3 2
7 7 6 7 5 4 4 3 5 5 6 6 6 6 4 3 4 3 3 4 4 3
10 9 8 7 7 7 6 5 6 6 6 6 6 4 4 3 4 4 3 2 4 2
8 8 7 7 8 7 6 7 7 6 6 6 6 6 5 6 6 5 5 3 5 6
7 7 8 8 7 6 7 6 8 6 6 5 6 6 6 6 6 7 6 6 6 6
6 6 7 8 8 6 6 7 6 6 7 7 7 7 6 6 6 7 6 6 6 7
4 5 5 5 6 7 7 7 6 6 7 7 7 7 7 6 6 6 6 6 6 6
5 5 4 3 6 7 7 9 9 9 8 7 7 7 8 7 7 6 6 6 6 6
6 4 5 4 6 5 7 9 7 8 9 9 8 11 13 9 8 7 7 7 6 6
4 5 5 5 5 4 5 3 7 9 10 11 11 12 14 15 8 7 8 8 6 5
3 5 5 5 6 6 5 6 5 6 7 8 9 12 15 15 9 7 7 8 9 8
6 7 7 8 7 5 5 5 6 5 7 10 12 13 16 11 6 9 10 9 9 10
2 1 1 1 3 4 5 4 4 4 4 6 8 6 10 8 6 9 9 8 9 14
2 2 3 2 3 4 3 2 3 4 3 3 1 3 6 8 6 8 7 7 8 8
Wind_Direction
192 189 186 197 214 225 220 234 232 217 212 230 253 228 223 240 223 226 227 224 245 245
197 194 197 213 202 230 226 225 244 235 218 217 232 241 199 226 253 221 234 223 239 229
205 199 195 191 210 210 216 211 219 222 227 220 216 221 227 250 252 250 249 232 271 256
195 200 190 203 208 203 200 204 217 220 218 217 219 218 212 229 248 241 248 230 242 256
187 192 200 202 213 209 207 204 215 203 210 214 219 230 218 230 221 219 240 238 231 252
189 190 206 207 206 200 217 215 205 198 206 208 218 222 231 220 226 224 234 236 223 240
236 211 213 223 196 188 200 211 209 205 218 213 213 217 224 222 225 221 235 240 233 229
187 235 237 246 230 194 186 214 215 212 216 224 217 221 215 212 221 223 234 239 240 241
209 207 222 230 262 251 198 209 204 219 223 223 229 225 217 208 211 214 221 236 242 242
197 214 228 232 232 224 249 223 232 224 223 227 228 222 219 216 223 215 219 224 227 225
228 240 231 228 232 220 204 212 214 222 219 236 238 223 226 224 221 223 222 218 220 213
203 215 229 239 228 215 211 210 214 214 227 235 242 221 228 219 226 233 233 229 220 211
63 89 179 275 263 208 206 231 216 232 229 250 254 249 253 224 229 238 237 229 230 217
51 64 21 353 13 14 1 312 218 223 178 192 360 324 268 242 229 229 233 235 237 230